Location: Bruderhein
(53.8035°N, 112.9265°W)
Time: 06:53:53
(UTC+00:00)

BlueWalker 3 - Visible Passes

Search period start: 09 December 2022 00:00
Search period end: 19 December 2022 00:00
Orbit: 501 x 518 km, 53.2° (Epoch: 08 December)

Date Brightness Start Highest point End Pass type
(mag) Time Alt. Az. Time Alt. Az. Time Alt. Az.
09 Dec 3.2 01:19:49 10° W 01:23:29 38° SSW 01:26:07 17° SE visible
09 Dec 5.1 03:00:16 10° WSW 03:00:59 11° SW 03:00:59 11° SW visible
10 Dec 3.4 01:01:25 10° W 01:05:03 37° SSW 01:08:39 10° SE visible
10 Dec 5.0 02:42:16 10° SW 02:42:51 10° SW 02:43:26 10° SW visible
11 Dec 3.5 00:43:00 10° W 00:46:37 36° SSW 00:50:11 10° SE visible
12 Dec 3.7 00:24:35 10° W 00:28:10 34° SSW 00:31:44 10° SE visible
13 Dec 3.8 00:06:10 10° W 00:09:43 33° SSW 00:13:15 10° SE visible
13 Dec 4.0 23:47:44 10° W 23:51:16 32° SSW 23:54:45 10° SSE visible
